TimePDT,TemperatureF,Dew PointF,Humidity,Sea Level PressureIn,VisibilityMPH,Wind Direction,Wind SpeedMPH,Gust SpeedMPH,PrecipitationIn,Events,Conditions,WindDirDegrees,DateUTC
12:53 AM,71.1,53.1,53,29.65,10.0,South,4.6,-,N/A,,Clear,180,2013-09-10 07:53:00
1:53 AM,71.1,53.1,53,29.66,10.0,SW,9.2,-,N/A,,Clear,220,2013-09-10 08:53:00
2:53 AM,66.9,54.0,63,29.68,10.0,SSW,3.5,-,N/A,,Clear,210,2013-09-10 09:53:00
3:53 AM,66.0,54.0,65,29.68,10.0,SSW,6.9,-,N/A,,Clear,210,2013-09-10 10:53:00
4:53 AM,66.0,53.1,63,29.68,10.0,Calm,Calm,-,N/A,,Clear,0,2013-09-10 11:53:00
5:53 AM,64.9,53.1,65,29.69,10.0,WSW,3.5,-,N/A,,Clear,240,2013-09-10 12:53:00
6:53 AM,61.0,52.0,72,29.72,10.0,Calm,Calm,-,N/A,,Clear,0,2013-09-10 13:53:00
7:53 AM,64.9,53.1,65,29.74,10.0,SW,5.8,-,N/A,,Clear,220,2013-09-10 14:53:00
8:53 AM,70.0,54.0,57,29.76,10.0,WSW,6.9,-,N/A,,Clear,240,2013-09-10 15:53:00
9:53 AM,75.0,53.1,46,29.76,10.0,WSW,4.6,-,N/A,,Clear,240,2013-09-10 16:53:00
10:53 AM,79.0,54.0,42,29.77,10.0,WSW,4.6,-,N/A,,Clear,240,2013-09-10 17:53:00
11:53 AM,84.0,55.0,37,29.77,10.0,SSW,6.9,-,N/A,,Clear,200,2013-09-10 18:53:00
12:53 PM,84.0,55.9,38,29.75,10.0,SW,10.4,-,N/A,,Clear,220,2013-09-10 19:53:00
1:53 PM,84.9,57.0,38,29.74,10.0,SSW,11.5,19.6,N/A,,Clear,210,2013-09-10 20:53:00
2:53 PM,84.9,57.0,38,29.72,10.0,SSW,16.1,23.0,N/A,,Clear,210,2013-09-10 21:53:00
3:53 PM,84.0,57.0,40,29.71,10.0,SSW,12.7,23.0,N/A,,Clear,210,2013-09-10 22:53:00
4:53 PM,81.0,57.9,45,29.70,10.0,SW,16.1,23.0,N/A,,Clear,220,2013-09-10 23:53:00
5:53 PM,79.0,57.9,48,29.72,10.0,SSW,8.1,20.7,N/A,,Clear,200,2013-09-11 00:53:00
6:53 PM,75.0,57.0,53,29.73,10.0,SW,12.7,20.7,N/A,,Clear,220,2013-09-11 01:53:00
7:53 PM,72.0,55.9,57,29.75,10.0,SSW,12.7,19.6,N/A,,Clear,210,2013-09-11 02:53:00
8:53 PM,69.1,55.0,61,29.78,10.0,SSW,12.7,21.9,N/A,,Clear,210,2013-09-11 03:53:00
9:53 PM,66.9,55.0,66,29.79,10.0,SSW,11.5,19.6,N/A,,Clear,210,2013-09-11 04:53:00
10:53 PM,66.9,55.0,66,29.80,10.0,SSW,11.5,-,N/A,,Clear,210,2013-09-11 05:53:00
11:53 PM,66.0,54.0,65,29.80,10.0,SW,13.8,18.4,N/A,,Clear,220,2013-09-11 06:53:00